カタログに戻る

COSMOS 1823 DEB

運用中LEO
NORAD 39813·DEBRIS·🇷🇺 Russia

打ち上げ Feb 20, 1987 から Plesetsk Cosmodrome

Loading…

次のパス (今後24時間)

TLE

古いSource: Space-Track

元期: Sep 7, 2026, 14:43 UTC

1 39813U 87020EM  26250.61342516  .00000160  00000-0  11860-2 0  9999
2 39813  73.6366 196.9655 0036092 295.5127 240.5250 12.48985368558267

AllMySatでCOSMOS 1823 DEBをリアルタイム追跡

Download on the App Store